AL3A Weather Reports


Display with metric or nautical units.
time (UTC)temp
F
wind
direction
speed
MPH
gust
MPH
rain 1hr
in
rain 24hr
in
rain mn
in
humidity
%
barometer
mb
20260510143516 53 0.0 0.0 0.00 0.00 0.00 38 1027.8
20260510142516 52 0.0 0.0 0.00 0.00 0.00 45 1027.4
20260510141516 51 0.0 0.0 0.00 0.00 0.00 44 1027.3
20260510140536 49 0.0 0.0 0.00 0.00 0.00 47 1026.9
20260510135536 45 0.0 1.0 0.00 0.00 0.00 51 1025.9
20260510134516 42 0.0 0.0 0.00 0.00 0.00 52 1025.4
20260510133516 41 0.0 1.0 0.00 0.00 0.00 52 1024.9
20260510132516 40 0.0 0.0 0.00 0.00 0.00 53 1024.8
20260510131516 36 0.0 0.0 0.00 0.00 0.00 55 1023.7
20260510130516 35 0.0 1.0 0.00 0.00 0.00 58 1023.5
20260510125516 35 0.0 1.0 0.00 0.00 0.00 57 1023.2
20260510124516 35 180 1.0 4.0 0.00 0.00 0.00 57 1023.1
20260510123516 34 0.0 1.0 0.00 0.00 0.00 57 1023.4
20260510122516 34 0.0 1.0 0.00 0.00 0.00 58 1023.4
20260510121556 35 0.0 1.0 0.00 0.00 0.00 57 1023.3
20260510120516 35 0.0 1.0 0.00 0.00 0.00 55 1023.1
20260510115516 36 0.0 1.0 0.00 0.00 0.00 55 1023.3
20260510114516 36 0.0 1.0 0.00 0.00 0.00 54 1023.1
20260510113536 37 0.0 1.0 0.00 0.00 0.00 53 1023.5
20260510112516 39 0.0 1.0 0.00 0.00 0.00 51 1023.6
20260510111516 38 0.0 3.0 0.00 0.00 0.00 51 1023.6
20260510110536 37 0.0 1.0 0.00 0.00 0.00 52 1023.4
20260510105516 39 0.0 1.0 0.00 0.00 0.00 49 1023.8
20260510104536 40 0.0 0.0 0.00 0.00 0.00 48 1023.8
20260510103515 41 0.0 0.0 0.00 0.00 0.00 47 1023.7
20260510102556 42 0.0 3.0 0.00 0.00 0.00 45 1024.1
20260510101516 42 0.0 1.0 0.00 0.00 0.00 45 1024.2
20260510100516 43 0.0 3.0 0.00 0.00 0.00 44 1024.6
20260510095516 45 0.0 1.0 0.00 0.00 0.00 43 1025.0
20260510094515 44 225 1.0 3.0 0.00 0.00 0.00 43 1025.0
20260510093536 47 0.0 2.0 0.00 0.00 0.00 39 1025.5
20260510092536 48 0.0 1.0 0.00 0.00 0.00 39 1025.9
20260510091516 47 0.0 1.0 0.00 0.00 0.00 40 1025.9
20260510090516 43 90 1.0 4.0 0.00 0.00 0.00 46 1025.0
20260510085555 43 0.0 1.0 0.00 0.00 0.00 44 1024.3
20260510084516 43 0.0 1.0 0.00 0.00 0.00 46 1024.8
20260510083516 45 0.0 1.0 0.00 0.00 0.00 43 1025.7
20260510082516 43 0.0 1.0 0.00 0.00 0.00 47 1025.3
20260510081515 45 0.0 1.0 0.00 0.00 0.00 44 1025.8
20260510080516 45 0.0 1.0 0.00 0.00 0.00 42 1025.3
20260510075515 42 0.0 1.0 0.00 0.00 0.00 44 1024.8
20260510074515 42 0.0 1.0 0.00 0.00 0.00 50 1025.1
20260510073515 42 0.0 2.0 0.00 0.00 0.00 51 1024.6
20260510072517 43 0.0 1.0 0.00 0.00 0.00 48 1025.1
20260510071517 45 0.0 1.0 0.00 0.00 0.00 45 1025.5
20260510070517 47 0.0 0.0 0.00 0.00 0.00 44 1025.1
20260510065516 48 0.0 0.0 0.00 0.00 0.00 43 1025.6
20260510064516 47 0.0 1.0 0.00 0.00 0.00 42 1025.5
20260510063516 48 0.0 2.0 0.00 0.00 0.00 41 1025.9
20260510062516 49 0.0 0.0 0.00 0.00 0.00 40 1025.9
20260510061516 50 0.0 4.0 0.00 0.00 0.00 38 1026.5
20260510060516 51 0.0 1.0 0.00 0.00 0.00 38 1025.9
20260510055516 51 0.0 1.0 0.00 0.00 0.00 38 1026.1
20260510054516 52 0.0 1.0 0.00 0.00 0.00 37 1026.0
20260510053516 54 0.0 1.0 0.00 0.00 0.00 35 1026.4
20260510052516 56 0.0 1.0 0.00 0.00 0.00 32 1026.8
20260510051516 57 0.0 1.0 0.00 0.00 0.00 31 1026.6
20260510050536 58 0.0 1.0 0.00 0.00 0.00 31 1026.6
20260510045515 60 0.0 1.0 0.00 0.00 0.00 29 1027.1
20260510044516 63 248 1.0 3.0 0.00 0.00 0.00 26 1027.4
20260510043515 62 0.0 2.0 0.00 0.00 0.00 27 1026.9
20260510042536 62 0.0 1.0 0.00 0.00 0.00 28 1027.0
20260510041515 65 0.0 2.0 0.00 0.00 0.00 26 1027.8
20260510040515 64 225 1.0 3.0 0.00 0.00 0.00 25 1027.2
20260510035516 63 225 1.0 3.0 0.00 0.00 0.00 26 1027.1
20260510034536 63 203 1.0 2.0 0.00 0.00 0.00 28 1027.2
20260510033516 65 270 1.0 4.0 0.00 0.00 0.00 27 1026.6
20260510032516 66 225 1.0 5.0 0.00 0.00 0.00 25 1026.7
20260510031515 66 225 1.0 4.0 0.00 0.00 0.00 24 1026.3
20260510030535 66 248 1.0 4.0 0.00 0.00 0.00 24 1025.1
20260510025536 67 248 2.0 5.0 0.00 0.00 0.00 24 1024.9
20260510024515 67 225 3.0 7.0 0.00 0.00 0.00 23 1024.6
20260510023515 67 225 2.0 8.0 0.00 0.00 0.00 23 1022.1
20260510022515 68 248 1.0 8.0 0.00 0.00 0.00 23 1022.0
20260510021515 69 248 2.0 12.0 0.00 0.00 0.00 22 1021.8
20260510020515 69 248 1.0 6.0 0.00 0.00 0.00 22 1019.3
20260510015515 70 225 2.0 10.0 0.00 0.00 0.00 22 1019.8
20260510014515 70 248 3.0 12.0 0.00 0.00 0.00 22 1019.6
20260510013535 70 248 3.0 7.0 0.00 0.00 0.00 22 1018.2
20260510012515 71 225 4.0 12.0 0.00 0.00 0.00 21 1018.5
20260510011516 70 248 4.0 9.0 0.00 0.00 0.00 21 1018.1
20260510010518 71 225 4.0 9.0 0.00 0.00 0.00 21 1017.4
20260510005517 71 248 5.0 11.0 0.00 0.00 0.00 20 1017.4
20260510004517 71 270 1.0 6.0 0.00 0.00 0.00 21 1017.5
20260510003517 72 0.0 3.0 0.00 0.00 0.00 20 1018.0
20260510002517 73 225 2.0 10.0 0.00 0.00 0.00 19 1017.9
20260510001517 74 248 4.0 14.0 0.00 0.00 0.00 19 1018.6
20260510000517 75 270 8.0 16.0 0.00 0.00 0.00 18 1018.5
20260509235517 74 293 6.0 15.0 0.00 0.00 0.00 19 1018.5
20260509234517 73 270 2.0 7.0 0.00 0.00 0.00 21 1018.8
20260509233517 73 270 3.0 11.0 0.00 0.00 0.00 20 1018.7
20260509232517 73 315 4.0 19.0 0.00 0.00 0.00 20 1018.7
20260509231537 73 248 7.0 16.0 0.00 0.00 0.00 19 1018.9
20260509230537 73 248 7.0 16.0 0.00 0.00 0.00 19 1018.9
20260509225517 73 248 3.0 14.0 0.00 0.00 0.00 18 1018.8
20260509224517 73 248 4.0 17.0 0.00 0.00 0.00 18 1018.8
20260509223537 73 270 6.0 17.0 0.00 0.00 0.00 18 1019.5
20260509222537 74 270 6.0 14.0 0.00 0.00 0.00 18 1020.0
20260509221517 73 270 10.0 18.0 0.00 0.00 0.00 18 1019.7
20260509220517 73 248 7.0 17.0 0.00 0.00 0.00 17 1019.6
20260509215517 75 248 4.0 15.0 0.00 0.00 0.00 18 1020.2
20260509214517 74 270 3.0 9.0 0.00 0.00 0.00 18 1020.4
20260509213517 75 248 7.0 17.0 0.00 0.00 0.00 16 1020.5
20260509212517 75 248 4.0 17.0 0.00 0.00 0.00 18 1020.6
20260509211517 74 270 9.0 15.0 0.00 0.00 0.00 17 1020.5
20260509210517 76 293 6.0 15.0 0.00 0.00 0.00 17 1021.5
20260509205517 76 248 3.0 8.0 0.00 0.00 0.00 16 1021.6
20260509204517 75 270 4.0 15.0 0.00 0.00 0.00 17 1021.8
20260509203517 76 293 9.0 17.0 0.00 0.00 0.00 17 1022.5
20260509202517 76 248 7.0 14.0 0.00 0.00 0.00 16 1022.5
20260509201517 77 248 7.0 16.0 0.00 0.00 0.00 15 1022.5
20260509200517 78 248 4.0 18.0 0.00 0.00 0.00 17 1023.6
20260509195516 77 270 7.0 16.0 0.00 0.00 0.00 16 1023.2
20260509194537 76 270 6.0 18.0 0.00 0.00 0.00 15 1023.4
20260509193516 77 248 5.0 17.0 0.00 0.00 0.00 16 1024.5
20260509192517 75 248 9.0 20.0 0.00 0.00 0.00 17 1024.5
20260509191517 74 293 8.0 15.0 0.00 0.00 0.00 17 1023.9
20260509190517 75 158 3.0 15.0 0.00 0.00 0.00 16 1026.6
20260509185516 74 270 5.0 17.0 0.00 0.00 0.00 17 1026.5
20260509184516 74 270 9.0 17.0 0.00 0.00 0.00 16 1026.6
20260509183517 73 293 1.0 6.0 0.00 0.00 0.00 16 1026.9
20260509182516 74 270 8.0 18.0 0.00 0.00 0.00 18 1027.4
20260509181516 74 248 6.0 16.0 0.00 0.00 0.00 16 1027.2
20260509180516 74 270 4.0 12.0 0.00 0.00 0.00 17 1027.2
20260509175516 73 248 4.0 14.0 0.00 0.00 0.00 16 1027.2
20260509174517 73 270 8.0 22.0 0.00 0.00 0.00 16 1027.3
20260509173516 72 270 11.0 19.0 0.00 0.00 0.00 17 1026.8
20260509172516 72 293 10.0 19.0 0.00 0.00 0.00 18 1027.0
20260509171517 72 293 4.0 14.0 0.00 0.00 0.00 17 1027.1
20260509170516 72 293 1.0 3.0 0.00 0.00 0.00 20 1027.5
20260509165536 71 270 1.0 4.0 0.00 0.00 0.00 18 1027.5
20260509164516 71 293 4.0 12.0 0.00 0.00 0.00 19 1027.6
20260509163516 71 248 1.0 3.0 0.00 0.00 0.00 18 1027.4
20260509162516 70 315 1.0 4.0 0.00 0.00 0.00 21 1027.5
20260509161657 70 293 3.0 10.0 0.00 0.00 0.00 18 1027.5
20260509160516 70 293 3.0 10.0 0.00 0.00 0.00 19 1027.6
20260509155516 69 293 8.0 14.0 0.00 0.00 0.00 20 1027.7
20260509154516 69 293 4.0 12.0 0.00 0.00 0.00 22 1027.8
20260509153516 69 293 1.0 6.0 0.00 0.00 0.00 24 1028.3
20260509152516 68 270 1.0 4.0 0.00 0.00 0.00 23 1028.0
20260509151536 68 270 1.0 3.0 0.00 0.00 0.00 24 1028.0
20260509150516 67 293 1.0 2.0 0.00 0.00 0.00 26 1028.5
20260509145516 65 0.0 2.0 0.00 0.00 0.00 30 1028.4
20260509144516 64 0.0 3.0 0.00 0.00 0.00 31 1028.3